Theta_e
330 330 330 330 331 330 329 329 329 329 329 332 334 333 333 334 335 334 332 332 333 334 334 334 334 334 332 331 330 329 328 327 327 325 324 325 327 328 327 329 333 339 343 344 344 343 343 344 343 344 341 340 340 340 340 340 341 340 340 340 339 339 339 339 339 339 338 338 337 337 337 337 336 336 335 335 336 335 335 334 334 332 330 329 328
316 328 331 330 330 330 329 329 328 329 330 331 333 334 334 334 334 334 333 332 332 334 334 333 333 333 332 331 330 329 328 327 327 326 325 326 328 329 327 327 329 334 338 342 344 344 343 343 344 344 343 341 341 343 341 339 338 339 339 339 339 339 338 339 339 339 339 339 338 338 337 337 337 337 336 336 336 335 335 334 334 332 331 329 328
315 315 325 331 330 330 330 330 329 330 331 332 333 333 334 334 333 334 333 333 332 334 333 333 332 331 331 330 330 329 328 328 327 326 326 327 328 329 330 326 327 330 334 339 342 344 344 343 343 343 343 343 343 343 340 340 339 339 338 338 339 340 339 339 338 338 339 338 338 338 338 337 337 337 337 337 336 336 335 334 334 332 331 329 328
310 313 318 326 330 330 331 331 331 331 332 332 332 333 333 333 333 333 333 333 333 334 334 332 332 331 331 330 330 328 328 328 328 327 327 327 328 329 329 330 326 327 330 334 339 341 342 343 343 344 343 342 342 343 343 341 341 340 340 339 339 340 340 339 338 338 338 338 338 338 338 338 338 337 337 336 336 335 335 334 334 333 331 330 328
307 311 317 322 330 330 330 331 332 332 332 332 332 332 332 332 331 331 331 331 331 332 333 333 332 331 331 331 330 329 329 328 328 328 327 328 328 329 329 330 330 327 327 329 332 336 340 341 342 344 344 342 342 342 341 341 340 339 340 340 340 340 339 339 339 338 338 339 338 338 338 338 338 338 337 336 336 335 335 334 334 333 331 330 328
305 308 315 316 324 331 331 331 332 332 332 332 331 332 331 331 331 330 328 329 329 329 330 331 332 332 331 331 330 330 330 329 329 328 328 327 328 328 329 329 329 329 329 326 327 329 334 338 341 343 344 343 343 342 341 340 340 339 339 339 339 339 339 339 339 339 338 338 339 339 339 338 338 338 338 337 336 335 335 334 334 333 331 330 329
303 304 310 313 315 316 319 322 326 330 332 332 331 331 331 330 330 329 329 328 329 328 329 330 330 330 331 331 330 330 330 329 329 327 327 328 327 327 328 329 328 328 327 327 325 326 328 332 337 340 342 343 342 342 341 341 339 339 338 338 339 339 339 339 339 339 338 337 339 339 339 339 338 338 338 337 336 335 335 334 334 333 331 330 329
299 303 304 308 311 312 315 318 321 325 327 329 330 330 330 330 330 329 327 327 328 328 329 329 330 330 331 331 330 329 329 329 329 328 327 326 326 326 326 327 327 327 324 326 326 325 326 328 332 336 339 340 341 342 342 342 341 340 339 339 338 338 339 339 339 339 337 338 338 338 339 338 338 338 338 338 337 336 335 335 334 333 332 330 329
295 300 302 304 307 309 311 315 317 317 317 316 315 316 318 326 329 329 329 326 327 327 328 328 328 329 329 329 329 329 328 328 328 328 327 325 325 325 324 324 324 322 325 325 324 324 324 325 328 331 334 333 334 338 340 341 341 340 339 339 337 337 337 338 339 338 338 338 338 338 338 338 338 337 337 338 337 336 336 335 334 333 332 331 329
292 296 299 302 304 305 307 310 314 314 314 314 313 315 316 316 319 326 328 327 326 327 327 328 328 327 328 328 328 328 328 328 327 324 326 326 325 325 325 324 323 322 323 323 323 323 323 323 324 326 326 326 329 334 338 340 341 340 339 337 336 335 336 337 337 337 337 338 338 338 338 338 338 338 338 337 337 337 335 335 334 333 332 331 329
291 293 296 298 300 302 304 305 309 311 311 311 311 312 312 314 315 316 321 324 325 326 327 327 327 326 326 327 326 326 327 327 326 326 326 325 325 325 325 323 323 322 321 321 322 321 321 321 322 322 324 323 325 329 334 336 338 338 338 336 336 336 335 335 335 336 337 338 337 337 338 338 338 338 338 337 337 337 336 335 335 333 332 331 330
287 290 293 294 297 299 300 302 304 307 307 307 308 309 309 311 312 314 315 317 316 317 320 320 320 321 320 322 323 323 323 323 324 323 323 323 322 322 322 322 320 320 320 319 319 319 319 320 319 321 321 322 322 324 328 329 332 337 339 338 337 337 337 337 337 336 337 337 337 337 337 338 338 338 338 337 336 337 336 335 335 333 332 331 330
285 287 290 292 292 295 297 299 301 304 305 305 307 307 309 310 311 313 313 313 313 315 316 318 319 318 319 319 320 321 321 321 322 323 322 323 323 322 322 321 319 318 319 318 317 317 318 319 319 319 320 320 320 320 322 324 326 332 337 338 337 337 337 337 336 337 337 338 337 337 337 337 338 338 338 338 337 336 336 335 334 333 333 332 330
283 284 288 288 289 291 294 295 297 299 302 304 304 306 306 307 309 309 312 313 313 314 315 315 314 312 312 315 317 318 318 318 318 319 319 320 320 319 319 319 319 318 318 317 316 316 316 317 318 318 318 319 319 319 320 321 323 326 331 335 337 337 337 337 336 336 337 337 337 337 337 337 338 338 338 338 338 336 335 335 334 333 333 332 331
281 282 285 286 286 288 290 292 294 297 297 299 300 301 303 305 307 308 308 311 312 315 314 315 309 312 314 314 312 311 312 313 314 316 318 319 319 318 318 318 318 318 318 316 315 315 315 316 316 317 317 318 318 319 319 320 321 325 328 330 332 336 337 337 337 336 336 337 336 336 337 337 337 337 338 337 336 335 334 335 334 334 332 332 331
279 280 282 284 284 285 288 289 291 294 295 295 297 298 300 302 305 307 307 305 308 310 313 313 313 309 305 306 306 309 308 307 308 312 315 317 317 318 318 318 318 318 316 315 315 315 314 314 314 315 316 317 317 318 318 318 322 326 327 327 328 332 335 336 336 336 335 336 336 336 336 337 336 336 337 337 337 335 335 334 334 333 333 332 332
278 278 280 282 283 283 285 287 289 292 293 292 293 295 298 301 303 305 305 305 305 308 310 311 312 314 308 305 305 304 304 306 307 309 310 310 311 315 316 316 316 316 316 316 316 315 315 314 314 314 315 316 316 317 317 318 319 320 323 327 329 330 332 335 336 336 336 336 336 335 336 336 336 337 336 336 335 335 334 334 334 333 333 332 332
277 277 277 281 281 282 283 285 286 289 290 290 291 293 295 298 301 303 303 305 305 305 305 309 310 312 312 311 309 304 303 306 305 300 308 308 308 310 312 313 313 313 314 314 315 316 315 315 314 314 314 315 315 316 316 317 317 318 318 321 329 331 333 335 335 336 336 336 336 336 336 336 336 336 336 336 336 336 335 334 333 334 332 332 332
276 276 276 278 279 280 281 282 284 287 288 287 288 290 293 296 299 300 301 303 304 302 304 304 308 310 309 311 311 310 310 307 302 304 300 306 308 309 310 311 310 310 310 311 311 311 312 311 312 313 312 312 313 314 315 316 319 319 323 325 327 331 334 335 335 336 335 336 336 335 335 335 335 335 335 336 336 335 335 335 335 335 334 332 332
275 275 275 276 278 278 279 280 281 283 285 285 286 290 291 293 295 298 298 300 301 302 302 303 302 303 306 307 308 310 310 310 310 305 303 301 304 307 308 309 309 309 308 308 308 308 308 309 309 308 308 309 310 310 311 312 312 314 317 322 327 330 333 334 335 335 335 336 335 334 333 333 334 335 335 335 335 335 335 335 335 335 333 332 331
274 274 274 274 276 277 277 277 279 281 283 282 284 287 289 289 291 293 293 295 296 300 302 301 302 302 303 304 306 306 307 309 309 309 304 302 301 302 303 307 307 306 306 307 306 306 306 306 306 306 306 307 307 307 307 308 309 310 312 315 321 325 330 332 334 334 335 334 334 333 333 333 333 333 333 334 334 334 334 335 335 334 333 331 330
273 273 273 273 274 275 276 276 277 278 281 280 281 283 287 287 288 290 291 292 294 297 299 300 301 302 302 302 301 302 303 306 306 305 306 306 302 301 303 303 301 304 304 304 304 305 305 305 305 306 306 306 306 306 306 306 306 307 307 306 311 315 319 325 331 332 334 333 333 332 332 332 332 332 332 333 333 334 334 334 333 331 331 329 328
271 271 272 272 273 274 274 275 276 277 278 278 278 280 283 285 287 287 287 289 290 294 295 296 299 299 300 300 300 301 298 297 298 300 302 302 302 302 303 303 303 302 303 303 303 304 304 304 304 304 305 305 305 305 305 305 303 303 301 304 306 309 312 317 322 328 331 332 332 332 331 331 332 331 331 332 333 332 332 333 332 331 330 329 327
270 270 270 271 272 272 273 273 274 274 275 276 277 279 281 282 285 285 286 287 289 290 291 292 294 295 297 299 299 299 298 297 299 300 300 300 301 301 301 303 302 302 303 302 303 302 302 303 303 303 304 304 304 303 303 303 303 300 300 302 303 306 310 315 319 323 327 330 331 330 330 331 331 332 331 332 332 332 332 333 332 330 330 328 326
268 268 269 270 270 271 271 272 272 273 275 275 276 278 279 280 282 283 284 284 286 287 288 288 291 291 293 296 298 297 296 297 298 299 299 300 300 299 301 302 300 300 301 300 300 300 302 303 303 303 303 303 303 302 302 302 302 300 298 300 302 304 308 313 317 320 324 328 329 329 330 331 331 332 331 331 330 332 332 332 331 329 328 327 325
267 268 269 269 269 270 271 271 272 272 274 274 275 276 277 279 280 280 281 282 284 285 285 285 288 289 291 291 294 296 294 295 296 296 296 296 295 296 297 300 301 299 300 298 299 299 302 300 301 302 302 301 301 301 301 301 300 298 296 297 300 304 308 311 314 319 321 324 327 328 330 331 331 331 331 330 330 331 331 331 329 326 326 325 323
267 269 269 269 269 270 270 270 271 271 272 272 274 274 275 278 279 279 280 281 281 282 283 283 284 285 286 288 290 294 294 294 295 294 295 295 294 294 294 294 297 299 298 299 299 299 301 301 301 300 300 300 301 300 300 300 298 297 295 298 300 302 304 306 306 311 318 321 324 326 328 330 331 331 331 331 331 330 329 328 326 325 324 322 322
268 268 268 269 268 269 269 269 270 270 271 271 272 273 274 276 277 277 278 280 279 280 281 281 282 283 284 286 287 289 291 293 293 293 293 294 293 293 293 293 293 293 297 296 298 299 301 300 300 300 300 299 299 299 298 297 298 296 296 299 300 300 301 302 305 309 313 316 320 323 325 328 330 330 331 330 331 330 328 327 326 325 324 323 323
268 268 268 268 268 269 268 268 269 269 270 270 271 272 273 274 275 276 276 278 278 279 280 280 281 282 282 282 284 286 287 290 292 292 292 292 292 292 293 291 292 292 293 294 296 298 299 299 299 299 298 299 298 298 298 298 297 296 298 298 299 299 299 300 303 306 308 311 316 321 324 327 329 330 331 331 331 330 328 325 324 324 324 323 322
267 268 267 267 268 268 268 268 268 269 269 269 270 270 271 273 274 275 276 277 277 278 279 279 279 280 281 280 281 281 283 285 288 290 290 290 289 290 291 292 293 290 291 291 293 298 300 300 299 299 298 297 298 297 297 297 297 296 297 298 298 298 297 297 300 302 304 307 311 319 326 327 330 332 332 330 328 326 325 324 324 324 323 322 321
267 266 266 267 267 267 267 267 268 268 268 268 269 269 270 271 273 273 275 276 276 276 278 278 279 279 279 279 279 279 280 280 284 287 289 289 288 289 289 291 291 291 289 289 288 297 298 296 299 299 298 298 297 297 297 297 296 296 296 297 297 295 295 297 299 300 302 304 307 311 324 329 332 332 331 329 327 325 324 324 324 323 322 322 321
266 266 266 266 266 266 267 267 267 267 267 268 268 269 269 270 271 272 273 275 275 275 276 277 277 278 277 277 278 278 278 279 279 281 282 285 286 287 288 289 289 290 290 288 287 287 293 294 295 297 298 296 297 296 296 296 296 296 295 296 296 295 296 297 297 298 299 302 304 306 310 319 324 325 324 325 325 324 323 322 323 321 320 319 318
266 265 266 266 266 266 266 267 266 266 266 267 268 268 268 268 270 271 273 274 274 274 275 275 276 276 276 276 277 277 278 277 278 279 279 280 281 282 286 288 288 288 287 286 285 286 289 293 293 294 296 296 296 295 295 295 295 295 296 295 295 295 295 295 296 297 297 299 302 303 304 307 312 315 319 321 322 321 322 321 320 319 317 316 315
265 264 265 265 265 266 266 266 266 266 266 266 267 267 267 268 269 271 272 273 273 273 274 273 274 275 275 275 275 276 277 276 277 277 278 278 279 279 282 285 286 286 287 285 285 285 285 289 290 292 294 295 294 296 294 293 294 294 294 295 294 294 293 294 295 296 296 298 300 301 303 304 306 311 312 314 317 317 318 317 315 314 313 313 311
264 264 264 264 265 265 265 265 265 265 266 266 266 267 267 267 269 271 272 273 273 272 272 273 273 274 274 274 274 275 276 275 275 276 277 277 278 278 280 283 284 285 286 286 285 283 284 285 289 289 291 293 293 294 294 293 292 293 292 293 292 292 293 293 293 294 294 296 298 299 301 302 303 306 309 310 310 311 312 312 312 311 311 309 307
263 264 264 264 264 264 264 264 264 265 265 265 266 266 266 267 269 271 272 272 273 273 272 272 273 273 273 273 273 274 274 274 274 275 276 277 277 278 279 280 281 282 284 285 285 285 285 284 286 288 290 290 292 293 292 292 292 291 291 291 292 291 292 292 292 291 292 294 295 297 298 299 301 303 305 307 309 309 309 309 308 307 307 306 305
262 263 263 264 263 264 263 263 264 264 264 265 265 265 266 268 270 271 272 272 272 272 272 272 273 272 272 272 273 273 273 273 273 274 275 275 276 277 277 278 279 281 283 284 284 285 284 283 285 288 289 290 291 290 290 289 290 290 290 289 289 289 290 291 290 290 291 292 294 295 296 297 298 300 303 304 306 307 307 307 305 303 304 303 303
262 262 262 262 263 263 263 263 263 263 264 264 264 265 266 268 270 271 272 272 272 272 272 272 272 273 272 272 272 273 272 272 272 273 274 275 276 276 277 277 278 279 280 281 283 283 283 284 285 285 287 287 288 289 289 289 288 288 288 289 289 289 289 289 290 289 290 291 291 292 294 295 296 298 299 302 304 305 304 304 303 301 302 302 301
261 261 261 261 262 262 262 263 263 263 263 264 264 264 266 268 270 271 271 271 272 272 272 272 273 273 272 272 272 272 272 272 272 273 274 275 276 276 277 277 277 277 278 279 281 281 282 282 284 285 285 287 287 286 289 289 288 288 286 287 287 287 286 287 287 289 289 289 291 292 292 292 292 294 296 297 299 302 302 301 300 300 300 300 300
260 260 260 261 261 261 262 262 262 263 263 263 263 264 267 269 270 271 271 271 271 271 272 272 273 272 272 271 271 271 271 272 273 274 275 275 276 276 276 276 276 276 277 278 279 279 280 281 282 283 284 285 285 287 287 287 287 287 287 286 285 286 287 286 285 285 287 288 288 289 290 291 291 292 294 294 295 296 298 298 298 297 299 299 299
260 260 260 261 260 260 261 261 261 262 262 262 263 265 268 269 270 270 270 271 271 271 271 271 272 271 271 271 271 271 273 275 276 276 277 277 276 274 275 276 276 276 277 277 278 278 279 280 281 282 283 283 284 284 284 285 285 285 287 287 286 287 286 286 285 285 285 286 286 287 287 287 288 289 290 290 291 293 293 294 294 296 297 298 297
259 259 260 260 260 260 260 260 260 261 261 261 266 270 271 270 270 270 270 270 271 270 270 270 270 270 270 270 271 273 274 275 275 275 277 277 278 276 275 276 276 276 276 276 277 278 279 279 279 281 280 280 282 283 284 284 286 286 286 286 285 286 286 286 286 285 285 285 285 285 286 286 286 286 287 287 288 290 291 292 292 293 295 296 295
258 258 259 258 259 259 259 259 259 260 260 261 267 270 271 273 271 270 270 270 270 270 269 269 268 269 269 270 270 272 273 273 273 275 276 276 276 277 278 279 279 277 276 276 276 277 278 278 279 280 280 280 281 283 283 284 285 284 284 285 285 285 284 284 283 285 285 285 285 285 285 285 286 285 285 285 286 286 288 290 294 294 294 294 293
257 258 257 258 258 258 258 258 258 259 259 263 268 269 271 272 272 270 270 269 269 269 268 268 268 268 268 269 270 270 271 272 272 272 273 274 276 277 278 278 279 280 280 278 277 276 277 277 277 278 279 279 280 282 283 283 283 283 284 284 284 284 284 284 284 284 285 286 284 285 285 285 285 285 284 284 285 285 287 291 293 293 293 293 292
257 256 257 257 257 258 257 257 257 258 258 263 267 269 270 271 272 272 270 269 268 267 267 267 267 268 268 269 269 270 270 273 273 271 271 272 275 277 278 278 279 279 280 281 281 279 278 277 277 278 279 280 280 281 283 283 284 282 283 283 284 284 284 284 284 286 285 285 284 284 284 285 284 284 284 284 284 285 287 290 292 292 291 291 291
256 256 256 256 257 257 257 257 257 257 258 262 267 269 270 271 272 272 269 268 267 267 267 267 267 267 268 268 268 268 269 270 270 271 272 272 273 274 275 275 276 277 279 280 280 280 280 278 278 277 280 281 280 282 283 284 282 282 282 282 283 283 283 283 286 285 284 285 284 284 283 283 284 284 283 283 283 284 285 288 290 290 290 290 289
255 255 255 255 256 256 256 256 256 256 257 264 267 268 269 270 271 271 267 267 266 266 267 267 267 267 267 267 268 268 269 269 271 272 272 273 274 274 274 274 275 276 277 277 277 278 279 279 279 279 281 282 283 283 284 284 284 284 284 284 284 284 284 285 284 283 282 284 284 284 281 284 283 282 282 282 282 283 284 287 289 290 290 289 289
255 255 255 256 255 255 256 256 256 256 257 263 266 267 268 269 271 267 266 266 266 266 266 266 266 267 267 267 267 267 268 269 271 274 274 274 273 272 272 273 273 274 275 277 279 279 279 279 279 279 280 281 283 283 284 285 284 284 284 284 285 284 283 282 281 284 281 283 284 283 282 281 282 282 282 281 282 281 283 284 288 289 289 289 288
254 254 254 255 255 255 255 255 255 256 256 260 265 266 268 269 268 266 265 265 265 265 265 266 266 266 267 267 267 268 268 268 271 273 275 275 272 271 271 270 271 271 272 273 276 278 279 280 281 282 283 283 283 284 284 285 284 284 283 281 280 281 281 280 281 282 282 282 282 283 282 280 281 281 279 279 280 280 281 282 282 287 288 288 288
253 254 254 254 254 255 255 255 255 256 256 259 264 266 267 268 268 265 265 265 264 264 264 265 266 266 267 269 269 268 268 268 272 274 275 274 271 270 270 269 269 269 270 272 273 275 278 279 280 280 280 281 281 282 283 283 284 283 281 278 279 280 279 280 280 282 282 281 281 283 280 280 280 279 276 276 277 276 277 277 278 279 286 288 287
253 253 253 253 254 254 255 255 256 256 256 257 262 265 267 268 267 265 265 264 264 264 264 265 266 267 267 268 269 270 270 270 273 274 274 273 270 270 269 269 269 269 270 272 272 273 274 275 276 277 277 278 278 278 279 282 282 282 281 280 279 279 278 280 281 281 280 281 281 283 279 279 279 277 276 274 273 276 274 273 274 275 276 280 284
Wind_Speed
8 7 5 7 7 5 5 6 5 5 5 6 6 6 5 5 5 5 5 5 4 7 6 7 7 6 6 7 7 7 7 7 7 6 5 6 6 7 10 11 11 12 13 15 18 17 17 17 15 15 12 15 16 14 17 16 17 16 15 15 15 14 14 14 13 13 13 14 14 13 13 13 12 12 13 13 13 12 11 13 12 10 10 10 10
11 10 7 8 7 7 6 6 6 5 5 6 6 6 6 5 5 6 6 6 6 5 5 6 7 7 6 7 7 8 7 7 7 7 6 6 6 7 11 12 12 12 12 13 15 16 16 16 16 15 15 18 19 16 15 16 16 16 16 16 16 15 15 15 15 15 14 14 15 14 13 13 13 13 13 14 13 13 13 14 13 11 11 11 10
8 11 10 8 8 8 8 6 6 6 6 6 5 6 6 6 6 6 6 6 6 6 6 7 7 7 7 7 8 6 6 6 6 7 7 7 6 6 7 11 12 12 13 12 14 15 16 15 16 16 16 17 18 17 17 18 18 16 15 16 16 15 16 16 16 16 15 15 15 15 15 14 14 14 14 14 14 14 14 15 14 11 12 12 11
11 11 9 9 9 8 7 7 8 6 6 6 5 5 6 6 7 7 8 7 6 6 7 7 7 7 7 8 8 7 7 7 7 7 8 7 7 7 7 8 12 14 14 15 14 14 14 15 15 16 17 18 18 19 19 18 17 17 17 18 18 17 18 18 17 16 16 16 16 15 16 16 15 15 14 15 15 15 14 15 15 13 13 12 12
11 11 11 10 7 8 7 7 6 5 5 6 6 5 6 7 8 7 7 7 8 8 7 7 8 8 8 8 7 9 8 7 7 7 8 8 8 7 7 8 8 12 15 15 16 14 15 16 15 17 18 19 19 19 20 20 19 19 18 19 19 19 18 18 18 17 15 15 16 16 16 16 16 16 15 16 16 16 15 16 17 14 13 13 13
11 13 11 11 11 5 5 6 5 5 5 5 6 6 7 8 8 7 7 8 8 8 8 8 7 7 8 8 8 8 7 7 8 8 7 7 7 7 8 7 8 8 9 14 15 14 13 14 15 17 18 19 20 20 20 21 20 20 19 19 19 19 19 19 19 18 17 16 16 16 15 15 15 16 16 16 17 17 16 16 17 16 15 14 13
11 11 11 12 11 12 11 7 4 2 6 6 6 7 8 9 8 9 8 8 9 9 9 9 9 8 8 8 8 7 6 7 7 7 8 8 7 8 8 7 7 7 7 6 10 15 15 13 15 16 17 19 21 21 20 21 20 20 19 19 19 20 19 20 20 19 18 18 17 16 16 15 16 16 16 16 17 18 17 16 18 17 16 15 15
13 13 12 13 12 11 10 9 8 7 6 4 5 6 9 9 8 9 8 9 9 10 8 9 9 9 7 7 7 8 7 7 7 8 7 6 7 9 7 7 7 7 7 7 7 8 14 13 14 16 17 16 17 19 20 21 21 20 20 20 21 20 20 19 20 20 20 20 18 17 16 16 16 17 17 16 17 18 17 17 19 18 17 17 16
14 13 13 13 13 12 11 12 9 9 8 8 9 9 10 8 8 9 9 8 9 10 9 9 9 9 8 8 7 8 8 7 8 8 7 7 8 8 7 7 7 7 7 7 6 6 9 14 15 16 18 17 17 19 19 21 22 21 21 22 22 20 21 21 20 21 21 20 20 18 17 16 16 17 18 17 16 18 19 18 18 20 19 18 17
15 13 13 12 12 12 12 13 9 9 9 10 10 9 9 10 11 6 8 8 8 8 9 9 9 10 9 9 8 7 7 7 7 7 7 9 8 9 9 8 7 8 7 6 7 7 6 10 14 16 17 17 18 18 20 21 22 23 21 21 21 22 23 22 22 22 22 21 19 18 17 17 17 17 18 18 16 17 20 19 19 21 20 19 18
14 13 13 13 11 12 11 13 11 10 10 11 11 11 10 10 9 12 8 2 4 7 9 9 10 8 8 9 7 8 7 7 6 5 7 8 9 8 7 7 7 7 6 7 7 6 7 7 7 8 10 17 17 17 18 19 20 21 23 23 23 23 24 24 23 23 25 22 19 19 18 17 17 18 18 19 17 18 21 21 20 22 21 19 19
15 12 13 13 11 11 12 14 13 12 12 13 12 11 12 12 11 11 12 8 7 7 6 5 3 5 6 5 6 5 5 5 6 6 5 7 7 8 8 7 6 5 6 7 7 7 8 9 8 8 8 10 15 15 16 17 17 19 22 23 23 23 23 23 22 22 21 19 18 17 17 18 18 18 19 21 21 20 21 20 20 23 23 21 21
16 13 13 12 11 12 14 14 14 12 12 12 11 12 11 10 9 8 9 9 9 9 10 6 4 4 4 6 6 5 6 6 7 8 8 8 7 7 7 6 5 7 7 7 7 8 9 9 9 8 8 7 8 11 13 15 16 19 22 23 24 24 24 24 23 20 20 19 17 17 18 19 18 18 20 20 21 22 22 21 23 24 25 22 23
15 15 12 14 12 13 13 12 13 13 11 11 12 12 13 12 10 9 7 7 7 10 10 9 4 4 2 2 4 5 8 7 7 6 6 6 6 6 6 7 8 8 7 7 8 8 8 8 8 8 8 7 8 7 8 9 12 16 18 20 23 25 24 24 23 21 20 19 18 18 18 18 18 18 17 19 20 22 23 23 23 24 26 25 24
16 15 12 13 13 11 10 12 13 13 13 13 13 14 12 12 12 9 8 7 5 6 10 9 7 7 4 1 0 0 1 1 1 4 6 7 7 8 8 8 9 8 7 6 6 7 8 8 8 9 9 9 8 8 8 9 10 13 17 17 19 22 23 24 23 22 20 19 19 19 18 18 20 18 18 19 21 23 25 23 24 24 26 25 26
16 15 12 13 14 13 11 13 11 12 11 12 13 13 13 12 12 11 9 8 8 7 7 9 7 10 6 4 3 1 1 3 6 5 2 5 4 6 6 7 8 8 6 7 7 8 8 8 9 9 10 9 9 9 8 8 12 15 16 16 19 20 22 23 23 23 22 21 19 20 18 18 19 21 20 20 20 21 22 24 24 26 26 26 26
14 15 15 13 13 13 13 12 10 11 12 12 12 11 12 10 12 11 11 9 8 5 7 9 8 8 6 5 4 3 3 4 5 4 3 4 3 4 3 3 3 4 4 5 6 7 7 7 8 8 9 9 9 9 9 9 9 9 11 14 18 19 20 21 22 22 23 24 22 19 20 17 18 19 21 22 22 22 24 23 23 25 27 29 27
15 15 16 14 15 14 14 14 14 12 12 10 10 10 12 11 11 9 11 11 7 6 7 8 7 7 8 4 4 4 6 6 3 4 3 1 1 2 2 4 4 5 4 4 4 5 5 6 6 7 8 8 8 8 9 9 9 8 8 10 18 19 20 21 21 22 22 24 24 22 20 19 17 18 18 20 21 22 24 24 23 23 29 28 27
15 15 15 14 14 13 14 13 13 11 12 11 12 11 10 10 11 11 10 9 9 8 8 8 6 6 9 7 5 3 5 5 3 4 6 3 3 4 4 5 6 4 5 5 5 5 4 3 5 5 6 6 6 6 7 8 9 10 13 15 17 19 20 21 22 22 25 26 25 23 21 20 19 18 19 19 20 24 25 25 24 23 26 26 24
13 15 15 15 14 14 13 12 13 12 12 11 12 10 10 13 13 12 10 9 11 10 8 8 9 7 8 8 8 7 5 5 4 2 4 7 7 2 1 4 4 3 2 4 4 5 6 5 4 3 4 5 5 5 6 6 5 5 7 13 15 19 20 21 22 24 26 27 26 23 22 21 20 19 19 19 20 21 21 22 23 24 28 26 26
13 14 15 15 14 14 14 13 13 12 12 10 11 12 13 13 15 14 13 11 10 9 8 8 8 8 8 8 8 8 8 4 5 4 3 4 7 4 8 3 1 2 3 3 4 4 5 6 5 4 4 4 3 5 5 5 5 5 5 9 13 15 19 21 24 25 26 25 25 23 23 22 21 21 21 21 21 20 20 23 23 22 20 21 22
13 14 15 15 14 14 14 14 14 12 12 11 12 12 12 13 12 11 11 12 11 9 10 9 8 7 8 7 7 8 8 5 4 8 4 4 6 8 5 8 10 5 1 3 5 6 5 6 6 6 5 4 3 3 3 5 5 5 5 7 10 11 13 18 23 26 26 26 25 25 24 23 24 23 22 23 23 22 20 20 19 22 23 22 23
11 11 11 14 14 14 14 14 13 13 13 13 13 12 11 11 11 13 13 12 11 9 11 11 9 8 9 7 8 8 7 6 9 9 9 8 8 7 7 4 6 10 1 2 5 6 5 5 6 6 6 5 4 3 4 3 3 5 7 9 10 10 12 15 19 23 25 26 26 25 24 24 24 24 24 23 23 24 20 19 21 24 26 26 25
11 10 12 15 13 12 13 13 13 13 14 12 12 12 11 10 10 11 11 12 11 12 11 10 12 10 9 8 7 7 7 8 9 9 9 10 10 10 8 7 5 4 4 4 4 4 4 6 5 5 5 5 4 3 3 4 4 6 5 6 9 11 12 14 17 21 24 24 24 25 25 24 25 25 25 24 24 24 22 21 22 27 27 27 28
12 11 13 15 13 12 13 13 12 12 12 12 13 14 12 11 10 11 10 12 11 11 9 12 11 10 10 10 6 7 7 7 7 8 7 8 8 9 8 6 8 9 3 0 3 2 6 5 4 4 4 4 4 4 3 4 4 4 4 5 10 11 12 14 17 20 23 24 25 25 26 26 27 28 26 25 26 25 22 23 23 27 32 30 28
11 10 12 13 12 12 12 12 11 12 12 12 12 11 13 10 11 12 12 10 10 11 10 12 9 11 9 9 9 7 8 8 8 8 9 9 9 10 11 7 6 9 4 2 1 3 3 3 3 4 3 4 4 3 3 4 4 5 5 5 7 11 13 15 15 17 20 22 23 25 26 28 29 29 28 27 28 26 22 23 21 23 23 23 24
9 9 12 11 12 11 13 11 12 13 13 13 12 11 10 9 9 11 10 10 11 10 9 11 11 13 13 10 9 9 8 8 8 8 8 8 9 10 11 12 8 5 7 4 3 3 6 3 3 3 4 4 4 4 5 4 4 3 5 4 4 8 11 13 15 16 18 21 24 26 28 29 30 29 28 31 27 26 22 21 23 25 24 26 26
8 10 11 10 11 11 12 11 12 12 12 12 12 11 12 10 10 10 10 9 10 12 10 10 10 12 11 10 8 10 10 9 8 8 8 7 7 8 10 11 10 10 5 8 5 5 3 3 2 4 4 4 4 3 2 3 3 3 4 3 4 5 8 11 14 16 18 20 23 26 29 31 31 32 32 32 31 25 24 26 28 29 29 28 28
9 9 11 10 10 11 11 11 12 11 11 12 12 11 11 10 10 12 11 11 10 10 10 10 10 10 10 11 9 8 9 11 9 9 9 9 8 7 8 10 11 9 7 7 7 5 2 2 3 2 1 3 4 3 4 4 3 3 4 4 4 5 7 12 15 16 17 19 23 25 26 30 30 34 35 32 24 26 30 33 27 26 26 28 27
9 9 10 11 11 12 10 10 10 11 12 11 11 12 11 8 10 9 10 11 10 9 9 10 10 9 10 10 9 8 9 9 9 9 8 9 9 9 8 8 8 9 8 8 8 3 7 2 0 4 4 5 4 5 3 4 4 4 4 4 5 5 9 11 11 12 14 18 23 27 28 28 30 32 32 21 24 25 22 23 27 27 26 26 27
9 11 10 10 11 11 11 11 10 11 11 11 11 10 11 9 10 9 9 10 10 10 9 10 9 9 10 11 10 9 10 10 9 9 8 8 8 7 9 8 8 8 10 9 8 2 8 8 7 5 6 7 5 6 5 4 3 4 4 4 5 8 12 9 11 12 15 19 20 26 11 14 28 31 26 29 29 30 28 26 26 27 27 26 25
9 10 9 11 11 11 11 11 11 10 11 10 10 10 10 9 10 9 10 10 10 10 10 10 9 10 10 10 10 9 10 10 10 10 9 9 9 8 7 8 8 8 7 8 9 10 8 9 9 10 8 9 9 7 7 4 3 4 4 4 5 8 6 7 10 11 13 17 18 22 22 16 15 13 13 17 21 23 24 24 23 22 23 24 24
10 10 10 11 11 11 11 11 11 11 11 11 10 10 9 9 9 9 10 11 10 9 9 10 10 10 10 11 10 10 10 10 9 9 9 10 10 9 9 7 7 8 9 10 10 12 9 7 8 8 10 8 8 4 8 6 5 4 4 4 4 5 6 6 8 10 14 15 16 18 18 17 10 7 0 11 18 21 23 24 24 23 22 20 20
10 11 11 10 10 11 11 11 11 11 11 11 10 10 10 11 10 8 9 11 11 10 10 10 10 9 10 11 11 11 10 10 10 10 9 10 10 10 9 9 8 8 8 9 10 9 12 11 11 10 9 6 9 5 6 9 9 6 6 5 4 4 5 6 6 7 15 16 17 15 16 16 15 2 6 7 4 13 17 20 20 20 19 18 18
9 9 10 11 11 11 11 11 11 10 11 11 10 10 10 10 10 11 10 11 11 11 11 11 11 10 10 10 10 11 9 10 10 9 9 9 9 9 10 9 9 8 8 8 9 11 12 11 10 10 10 11 9 11 8 6 6 5 7 6 6 5 4 5 6 6 12 15 15 15 14 14 13 12 2 9 6 6 8 13 15 15 18 21 22
10 10 10 10 10 11 10 11 11 11 11 11 10 10 10 10 11 11 11 11 10 10 11 11 10 10 11 11 10 11 11 11 10 9 9 9 9 9 10 10 10 11 9 8 7 8 10 12 10 10 10 10 10 7 7 6 6 6 4 5 4 5 6 5 6 6 9 13 13 13 14 13 12 12 10 6 13 13 12 15 14 16 18 21 22
10 10 10 10 10 10 10 11 11 11 11 11 11 11 10 9 11 11 11 10 10 11 10 10 11 10 10 10 11 11 11 11 10 9 10 12 10 9 9 9 10 10 9 9 9 8 8 10 11 9 9 8 8 7 6 7 7 5 4 4 4 4 5 4 5 6 9 12 11 12 12 12 12 12 10 7 6 12 17 20 20 22 22 22 22
11 10 10 10 10 11 10 11 11 11 11 11 11 11 10 11 11 11 10 10 10 10 10 10 10 9 9 10 10 11 11 11 11 11 11 12 11 10 11 10 10 10 11 10 9 9 9 9 9 11 10 10 10 8 4 5 7 9 9 5 3 3 3 5 4 4 5 5 6 7 7 8 9 10 11 7 9 11 11 13 21 23 24 24 24
10 10 10 11 10 10 11 10 11 11 11 11 11 10 10 12 12 12 12 11 11 10 10 10 10 9 9 8 9 10 10 10 11 11 12 12 10 11 11 11 11 11 11 10 10 10 9 9 8 7 9 8 7 9 8 5 6 5 8 9 8 1 1 3 5 3 4 5 5 7 8 8 8 5 7 10 6 9 10 10 14 21 22 24 24
9 10 11 11 11 10 10 10 11 10 11 10 10 9 11 12 12 12 12 11 11 11 11 10 10 9 9 8 8 9 9 9 10 11 11 10 10 11 10 10 10 11 11 10 10 10 9 9 8 9 7 8 9 4 5 6 7 5 1 3 8 9 7 1 1 3 3 3 4 5 6 7 7 8 8 8 10 8 3 13 15 15 21 22 22
8 9 9 10 11 11 10 10 11 10 9 9 8 10 13 13 13 13 12 12 12 12 11 11 10 10 9 8 8 9 11 15 18 15 14 14 10 11 11 10 11 10 11 10 10 10 10 9 10 7 8 8 7 8 10 8 9 10 9 7 7 7 6 6 4 2 2 2 3 2 4 5 5 5 4 5 5 8 11 10 7 14 15 16 19
9 9 9 9 10 10 11 11 10 9 9 8 12 21 19 14 14 12 12 12 12 11 11 11 11 10 10 9 10 16 17 16 16 16 16 16 17 13 12 11 11 11 11 11 10 9 9 10 9 9 10 9 9 8 9 8 7 8 9 9 10 9 7 7 6 4 2 1 2 2 3 4 3 3 4 4 5 5 5 8 6 7 12 15 17
9 9 9 10 9 10 10 11 11 10 9 9 20 21 21 22 15 13 13 12 12 11 11 11 11 12 10 10 10 12 12 12 11 16 16 18 18 19 19 18 15 12 11 12 11 10 10 10 10 9 9 11 11 9 9 9 8 8 8 8 9 8 7 8 9 3 1 2 1 1 2 3 2 2 2 3 3 4 4 4 15 19 17 15 16
8 8 9 9 9 9 9 10 10 10 10 15 22 22 22 22 20 14 12 11 10 10 10 11 10 11 12 11 10 9 9 11 12 11 14 18 19 19 20 18 18 17 16 12 12 11 10 11 12 10 9 10 10 9 9 9 10 11 9 8 8 9 9 9 6 7 2 2 3 2 5 1 2 1 2 2 3 2 3 9 12 14 17 18 16
9 9 9 9 9 9 9 10 10 10 10 17 21 22 22 22 22 18 11 11 10 10 11 11 11 11 11 11 11 10 9 16 13 11 11 12 17 19 19 18 17 16 16 16 15 12 11 12 11 12 8 9 11 8 7 9 9 11 11 9 8 7 8 9 8 7 4 4 2 4 5 2 2 2 2 1 1 2 3 8 14 14 14 16 17
8 9 9 9 9 9 9 10 10 10 11 16 21 22 21 22 22 19 11 11 10 11 11 11 11 11 12 12 12 11 11 11 11 12 12 13 14 13 13 12 12 14 15 15 15 17 15 10 11 13 11 9 11 10 9 9 9 10 11 12 10 10 10 10 10 8 3 3 6 3 4 3 3 2 2 1 1 1 1 5 11 12 13 14 15
8 9 9 9 9 9 10 10 9 10 10 19 21 22 21 22 22 17 10 10 10 10 10 10 11 12 12 11 12 12 12 12 11 14 14 14 14 13 14 13 13 11 11 10 10 8 8 8 10 12 12 11 11 11 10 9 8 9 9 11 12 11 12 11 9 6 4 4 4 3 6 1 4 4 3 2 2 1 1 5 10 12 14 15 16
7 8 8 8 9 10 10 10 10 10 11 19 21 21 22 21 22 12 10 10 10 10 10 11 11 11 11 11 11 12 13 13 15 21 19 15 15 15 14 14 14 12 11 11 17 17 15 12 10 11 11 14 17 14 13 11 9 8 8 8 8 8 9 8 8 6 5 4 5 6 4 2 3 5 4 3 3 3 3 3 9 12 14 14 15
8 8 8 8 9 9 11 10 10 10 10 16 21 22 22 22 17 11 11 10 10 10 10 11 11 11 11 11 12 12 13 12 17 21 21 20 14 14 15 15 14 14 13 11 15 19 19 20 21 21 21 22 21 22 22 22 16 13 9 9 8 8 9 9 9 7 6 4 5 7 3 4 4 5 3 1 2 3 4 4 2 10 14 14 15
8 8 9 9 9 9 10 11 10 11 11 15 21 22 22 22 19 12 11 11 11 10 11 11 11 11 12 18 15 12 13 13 19 21 21 17 14 15 16 16 16 14 13 11 10 11 17 20 21 22 21 21 22 22 21 20 20 14 9 10 8 8 10 10 10 8 6 3 6 7 4 5 3 3 3 0 2 1 1 2 2 3 7 13 16
8 8 8 8 9 9 9 10 14 13 11 13 20 21 22 21 17 12 11 10 11 11 11 11 11 11 11 12 17 16 14 16 22 20 21 19 16 16 16 16 16 16 13 14 13 14 13 14 13 13 11 14 14 12 12 20 19 15 9 10 8 7 9 10 9 8 9 6 5 9 7 5 5 5 5 2 2 3 1 2 2 3 3 3 7
Wind_Direction
292 232 222 223 223 216 212 222 217 212 193 203 201 202 209 206 208 215 214 218 218 223 202 198 200 197 201 204 208 211 216 219 223 228 231 224 219 222 227 233 234 235 235 236 241 241 240 245 246 249 244 260 247 237 242 233 227 224 222 224 226 227 228 227 224 225 228 231 231 230 229 230 228 226 229 231 231 229 226 217 207 212 221 221 220
344 317 237 223 219 212 212 215 215 209 205 214 203 206 208 208 215 212 213 217 223 224 211 202 197 206 204 212 212 214 217 224 226 226 228 223 221 221 223 224 227 230 232 234 239 244 245 245 245 242 237 238 244 238 239 245 246 232 227 227 227 228 231 231 231 226 225 229 231 230 227 226 228 228 229 232 232 228 224 217 208 205 219 222 222
343 334 315 249 219 210 214 208 212 209 209 220 209 213 213 219 217 218 214 215 220 219 218 213 202 204 208 213 215 212 217 218 227 227 224 224 220 220 221 222 226 229 231 231 233 238 243 248 246 243 239 237 241 241 238 235 235 239 242 238 233 230 235 238 235 233 229 228 227 228 229 227 227 229 230 233 234 230 225 218 211 202 217 222 222
351 321 327 302 238 212 215 210 215 205 206 216 214 212 218 224 223 224 227 222 222 224 218 218 211 211 208 217 217 212 220 217 221 222 223 221 220 218 216 218 219 223 226 229 231 234 239 244 245 245 242 240 238 239 239 234 232 230 233 238 239 237 239 240 242 238 232 230 230 227 229 229 229 230 232 234 236 234 228 223 213 201 212 218 222
345 333 334 328 256 216 216 217 221 212 203 210 213 217 224 225 226 223 226 224 230 227 220 219 219 215 211 218 215 216 222 220 222 221 223 219 218 217 218 217 218 219 224 229 232 235 239 241 244 245 245 244 244 241 241 243 243 241 236 236 238 239 242 242 241 244 239 233 229 229 229 229 230 232 232 235 235 234 228 222 216 201 204 219 219
353 344 349 357 346 269 211 211 222 215 206 201 214 222 226 224 223 219 222 224 231 232 230 229 224 217 211 212 216 214 215 220 222 221 220 221 217 215 218 217 216 217 220 226 230 235 238 243 246 247 248 247 249 250 250 249 246 247 247 245 245 245 246 248 244 244 245 238 234 233 231 227 226 231 229 232 234 232 227 221 216 205 197 213 216
352 351 350 4 11 9 2 351 21 313 228 206 218 227 229 226 220 222 223 226 228 233 235 234 230 224 216 208 215 218 214 219 225 226 222 221 213 219 218 215 215 217 219 217 224 228 233 237 242 246 250 251 251 254 254 252 251 249 247 247 249 249 249 250 250 246 245 244 239 236 234 230 228 230 230 226 231 231 227 223 216 207 196 206 211
351 1 358 6 13 5 357 344 8 43 25 328 272 243 227 225 222 215 221 225 225 229 225 236 235 235 228 219 216 217 221 223 228 232 233 229 223 222 219 219 214 213 213 220 222 224 226 229 234 238 242 245 249 253 255 255 254 251 249 246 244 246 249 251 253 252 247 247 243 237 233 231 229 230 231 224 226 229 224 222 217 207 199 204 210
354 356 7 5 8 3 353 350 14 42 43 48 44 26 360 305 232 208 215 222 223 232 227 225 237 239 232 227 217 217 221 223 229 231 229 226 234 238 224 223 219 218 217 223 226 230 232 231 235 236 241 241 244 247 250 254 254 253 251 250 249 251 253 254 256 256 253 246 244 241 237 234 230 229 229 227 220 223 222 219 213 210 202 203 210
359 353 4 8 6 0 354 350 359 28 43 38 32 22 14 11 351 293 219 215 229 230 233 227 226 234 236 231 227 223 226 224 226 227 232 239 235 232 227 224 214 216 218 224 230 234 240 243 242 243 241 240 240 242 245 247 250 251 253 254 254 252 251 252 255 260 261 254 244 240 238 235 231 228 229 226 219 218 222 217 213 211 206 198 207
357 353 6 4 4 359 357 354 360 18 34 37 25 17 16 9 8 355 329 270 259 247 242 238 233 229 230 227 225 234 234 234 236 224 234 239 239 243 237 230 225 221 224 226 231 235 240 241 239 236 242 241 242 242 244 246 249 250 251 253 253 251 251 253 255 258 259 257 249 238 235 235 231 228 228 227 219 215 220 220 216 210 209 200 203
0 353 6 5 358 359 359 1 5 14 23 30 26 17 11 3 4 10 8 20 17 353 326 275 237 234 235 240 227 217 222 234 243 237 238 241 234 236 238 233 228 224 222 223 222 225 229 235 234 235 239 244 244 246 247 247 248 249 248 248 248 250 249 248 251 255 260 259 254 249 240 236 231 229 230 232 228 220 220 219 215 214 209 202 208
6 356 1 0 359 360 6 4 5 11 18 20 19 18 9 4 357 5 14 7 8 358 1 321 223 245 231 243 249 229 241 227 244 251 240 239 241 241 245 250 237 225 227 220 218 218 222 227 229 232 234 235 245 244 242 245 246 246 247 249 248 246 248 250 251 255 258 261 256 246 242 238 235 230 232 230 230 227 223 218 216 216 212 202 207
4 2 3 8 357 0 7 4 2 6 10 13 16 20 12 7 3 8 1 11 4 5 4 1 19 329 280 208 215 212 214 214 230 259 269 263 254 249 243 239 238 234 233 227 227 227 228 229 231 232 232 229 234 233 233 234 239 241 245 247 249 250 247 248 249 251 255 258 259 254 246 244 240 236 229 228 226 227 224 223 219 217 211 211 207
8 3 6 7 3 359 1 1 5 7 6 9 11 16 13 5 4 9 358 4 6 4 9 16 345 313 256 219 262 281 66 61 60 248 252 255 247 244 239 240 242 245 243 241 235 237 235 232 232 230 231 230 228 228 228 227 226 228 233 237 241 245 247 249 249 250 251 254 257 258 255 252 248 237 231 231 232 231 229 226 222 215 215 212 210
6 5 3 4 6 5 2 7 0 9 7 6 4 7 5 4 5 5 1 11 11 355 8 3 16 359 4 2 316 350 4 47 333 307 310 317 292 272 263 259 257 255 250 246 240 239 238 229 229 227 228 228 225 224 224 223 226 229 228 230 236 238 242 244 248 250 252 254 253 256 253 248 248 246 239 233 231 234 234 233 230 223 216 212 209
4 5 3 0 4 5 6 6 0 7 11 10 7 354 354 353 5 6 9 7 5 358 352 5 6 32 7 344 350 23 37 320 320 271 357 343 1 355 18 3 328 309 301 282 266 251 247 243 234 228 228 227 226 223 220 220 224 226 230 232 235 235 236 238 242 246 249 253 254 250 253 248 246 247 246 240 238 236 237 233 230 223 217 218 214
8 3 360 359 4 2 5 8 6 7 12 7 0 352 354 352 3 360 3 2 354 7 360 358 354 23 15 28 355 340 330 318 358 323 321 210 242 22 12 16 344 333 323 312 315 309 294 270 254 249 240 229 230 230 221 217 216 217 219 226 229 232 231 233 236 241 245 250 251 254 251 250 247 247 246 242 238 234 232 230 231 227 227 224 220
7 7 2 357 4 2 5 6 6 6 10 1 3 353 349 351 356 10 0 349 2 14 9 359 352 21 1 354 349 319 321 325 347 311 331 322 23 21 355 355 345 343 337 327 320 312 307 311 309 301 286 274 257 248 251 239 217 216 217 217 222 227 229 231 234 237 245 250 251 250 252 252 250 248 249 250 244 242 238 232 230 226 227 227 210
4 8 3 360 3 2 3 1 6 0 10 5 357 341 349 3 1 6 5 0 360 9 2 9 13 352 353 357 351 341 331 317 302 304 289 308 319 334 219 330 331 321 300 307 306 302 301 299 286 286 308 311 303 285 271 265 257 240 242 243 234 227 229 233 235 238 244 248 251 250 250 251 254 254 252 251 250 247 242 238 230 230 236 231 204
7 6 4 1 3 3 360 360 2 356 3 355 353 353 2 2 4 4 4 358 358 344 7 10 3 5 358 357 353 353 335 294 281 297 303 304 296 333 323 311 228 239 318 284 285 278 279 282 277 271 262 251 272 303 306 299 291 278 247 242 247 256 249 241 241 244 245 249 251 251 252 251 251 254 257 258 255 251 244 239 236 233 220 196 190
3 3 5 358 358 1 3 2 2 356 0 351 345 351 359 8 5 0 356 358 353 344 11 358 2 359 8 354 6 353 354 349 354 341 299 260 300 313 320 330 332 323 305 306 306 300 283 276 280 273 269 266 255 242 261 294 306 302 299 309 272 263 269 265 252 245 250 251 252 253 254 255 255 255 257 257 256 252 247 240 225 216 200 191 186
358 355 359 358 359 358 2 359 359 359 357 356 354 350 347 2 3 5 4 1 347 349 10 356 2 5 6 6 3 11 9 338 340 343 336 329 320 310 317 305 295 308 262 273 298 286 278 270 271 274 266 269 266 261 260 258 264 276 298 298 290 280 276 273 273 263 251 250 253 256 255 255 257 257 257 255 255 254 239 218 212 211 200 185 182
0 357 360 359 358 355 356 354 0 356 360 352 350 350 345 355 1 6 3 1 353 359 4 354 4 1 3 2 11 6 6 355 343 339 342 330 320 311 311 316 293 229 288 303 259 261 267 266 261 267 274 273 271 269 278 275 276 273 282 285 286 286 281 278 273 269 262 256 254 255 256 255 254 253 251 251 250 251 239 222 212 203 197 185 180
359 359 358 357 356 356 357 353 354 352 353 350 347 348 346 356 0 359 3 7 2 360 358 354 357 360 351 350 9 13 8 348 343 348 344 327 321 314 306 307 298 306 289 302 306 253 242 251 247 249 259 268 276 283 278 276 274 286 291 289 291 289 288 285 280 280 277 264 260 257 257 255 252 251 249 247 248 246 236 229 215 201 187 179 176
348 359 353 351 354 357 352 350 351 346 350 349 348 349 344 356 357 0 1 1 352 3 1 355 353 355 350 355 348 20 7 359 350 355 351 349 338 326 317 301 288 293 297 319 257 349 305 244 251 253 254 256 263 251 255 261 269 271 281 292 295 295 295 291 287 282 280 280 273 267 261 259 257 253 250 247 245 243 229 225 203 199 183 166 164
343 342 346 350 351 353 355 353 352 352 350 349 347 348 340 352 359 358 358 358 350 354 357 359 0 357 356 353 345 352 16 360 351 359 354 355 342 332 327 317 300 280 297 287 286 225 265 283 232 238 233 244 240 233 231 229 246 274 306 292 286 294 300 303 302 300 294 285 278 271 265 260 258 256 253 249 242 235 224 197 175 173 173 166 163
339 345 344 342 348 351 352 355 353 354 352 349 346 351 340 349 355 357 356 356 351 356 356 356 354 356 353 349 349 352 352 353 354 355 352 351 341 337 335 329 323 310 305 296 294 287 221 271 286 227 228 235 246 245 250 272 277 306 301 287 292 297 298 301 301 301 301 299 293 278 266 261 258 257 253 250 247 235 210 177 172 169 168 170 164
344 346 341 342 346 346 343 347 355 353 351 349 350 349 341 350 353 351 353 353 351 354 353 357 351 352 353 353 350 345 349 342 348 355 349 346 344 340 346 335 327 318 312 294 289 296 298 169 299 305 41 339 324 332 306 293 305 321 303 294 290 289 295 302 303 304 308 309 303 288 264 255 253 252 250 248 246 227 182 169 166 166 161 158 160
348 344 340 342 344 346 344 343 344 349 356 350 351 350 345 350 349 350 345 346 348 349 353 354 351 351 350 351 349 351 348 348 340 344 349 348 346 341 336 333 331 337 329 312 307 310 296 334 178 316 349 341 326 305 292 293 311 319 306 302 296 289 295 292 290 296 309 317 312 314 267 245 244 242 244 210 164 154 157 152 157 158 162 167 171
347 346 341 344 346 344 345 341 344 344 346 345 349 351 346 345 348 347 345 350 348 348 349 353 348 349 349 348 350 351 348 342 339 339 344 348 343 337 333 332 343 344 337 327 311 330 22 335 331 353 330 321 324 303 294 287 298 311 304 302 297 302 304 301 306 320 327 327 325 338 345 256 239 236 188 170 163 159 159 162 165 169 168 167 168
345 344 342 345 345 343 343 342 341 342 343 344 343 347 346 346 346 343 342 346 350 348 347 349 346 346 345 346 348 348 344 342 340 343 344 345 342 334 327 333 339 339 332 324 314 303 328 317 321 318 333 321 313 304 304 300 286 294 298 302 305 311 314 310 315 327 334 332 338 346 352 38 66 108 132 145 153 157 164 166 168 169 167 167 165
347 341 345 343 344 341 340 342 343 340 343 342 344 344 344 340 342 340 340 346 346 346 346 344 347 345 345 341 342 343 342 341 337 339 341 342 342 336 332 327 334 342 343 336 328 319 316 318 315 317 322 324 322 340 319 318 317 307 298 295 314 322 319 319 319 324 337 339 351 351 348 1 29 35 89 177 167 169 166 166 166 166 167 167 163
346 339 343 344 341 340 341 341 339 339 339 340 341 343 342 338 339 345 344 345 344 342 344 342 345 343 342 337 338 340 341 338 334 336 337 339 340 337 333 332 333 338 340 334 326 318 315 325 325 328 320 336 315 332 334 329 322 330 318 316 323 323 321 327 326 326 341 348 353 354 352 353 348 44 87 9 191 167 167 163 166 165 161 160 145
341 339 340 340 339 340 340 339 339 338 338 337 339 339 337 333 338 342 343 342 342 340 341 340 340 339 340 338 336 336 336 336 334 332 334 337 335 331 330 331 330 326 330 333 328 324 323 319 317 319 329 328 326 317 325 318 307 315 317 322 327 322 326 330 328 323 343 348 348 352 354 350 349 335 162 156 164 182 188 164 161 160 158 146 144
338 337 341 337 338 339 338 337 339 338 337 335 335 336 331 328 337 338 338 339 337 335 334 333 334 338 336 334 333 335 334 332 329 332 333 335 333 327 328 329 327 324 322 327 324 316 319 317 321 320 324 324 321 318 311 306 308 318 312 309 318 325 330 335 335 334 341 343 348 351 352 352 345 335 315 214 171 169 192 172 156 146 146 145 148
337 337 338 340 337 339 339 336 335 336 334 331 331 331 327 329 336 335 334 335 333 331 328 327 329 331 331 331 328 332 333 329 327 330 329 331 328 328 326 327 326 322 321 321 320 320 315 316 313 314 314 314 308 308 317 331 322 310 303 306 313 321 323 319 330 341 335 340 346 352 352 350 352 337 319 302 257 203 185 175 161 154 153 153 151
334 336 336 336 338 334 335 331 333 329 329 327 328 325 325 333 334 331 331 329 328 326 325 324 323 323 325 324 325 328 328 328 323 322 325 325 325 325 325 324 324 322 319 317 317 317 314 307 312 314 322 327 326 323 324 342 325 319 317 305 302 309 334 323 331 335 335 338 347 345 344 354 351 357 347 298 245 229 234 203 167 160 157 155 153
331 335 335 334 333 334 328 330 331 328 326 325 324 322 328 333 331 331 330 328 325 324 319 319 318 316 317 317 321 322 322 319 317 319 320 322 320 322 324 323 324 323 319 317 318 318 314 312 310 305 307 312 316 318 327 326 301 289 303 319 321 341 350 345 324 328 338 331 330 341 351 352 9 22 30 15 334 247 211 182 171 158 157 155 154
331 334 332 331 330 330 326 331 328 327 324 320 320 322 328 330 330 329 329 326 324 320 317 316 316 315 315 316 315 316 312 309 313 315 318 317 319 319 320 322 322 320 318 317 319 315 314 312 311 315 314 312 319 298 301 323 333 330 333 301 311 316 320 313 246 308 310 334 327 328 343 348 352 359 10 42 40 38 181 165 162 164 155 152 150
330 328 325 329 327 327 328 330 326 325 322 321 319 326 327 327 329 328 326 325 321 319 317 316 314 314 312 312 313 309 309 311 313 313 313 315 319 318 317 319 317 315 313 314 313 312 311 310 310 312 310 315 315 328 336 347 344 327 321 316 295 291 297 309 282 227 248 307 294 339 359 350 341 360 3 33 17 81 68 46 110 132 135 139 137
326 322 324 328 326 326 329 326 328 326 319 312 315 322 327 327 329 328 324 321 320 318 317 316 315 314 311 311 308 309 311 313 315 313 314 316 315 311 309 312 313 312 312 310 310 310 308 309 312 317 319 313 319 326 320 321 318 326 330 329 318 312 312 289 279 250 213 185 306 349 343 349 350 12 23 33 352 28 94 115 112 105 122 124 127
325 324 328 325 325 328 326 325 323 320 314 308 319 325 326 330 332 328 324 321 319 319 316 316 315 314 313 312 309 311 311 311 311 314 317 316 313 311 309 306 305 305 307 305 302 304 307 302 305 306 305 306 311 316 314 315 323 326 325 317 311 312 312 314 316 326 162 165 319 286 308 340 342 84 29 31 27 26 39 101 136 133 129 129 131
325 328 322 317 322 321 322 320 318 314 312 312 321 323 326 330 330 328 323 321 320 319 316 314 312 311 312 313 314 311 311 310 313 316 315 312 311 311 310 308 305 300 294 291 298 302 303 301 300 298 300 302 304 312 314 321 322 318 319 312 311 312 306 298 289 292 320 132 218 292 257 316 1 38 81 25 20 21 88 122 119 124 127 130 133
325 320 319 323 318 316 317 316 314 312 309 312 319 322 326 328 328 328 325 324 321 315 313 312 310 310 312 313 312 311 311 314 316 313 308 308 312 312 311 311 308 303 298 292 288 290 296 294 294 292 294 300 298 300 306 309 309 309 311 313 312 310 301 292 285 283 274 185 205 259 268 224 122 226 146 32 40 4 90 124 133 131 133 135 139
319 318 318 317 316 318 315 314 312 310 307 308 317 322 325 327 327 329 329 325 317 311 310 310 311 312 311 310 310 310 310 312 311 311 311 312 311 313 315 314 309 305 303 300 296 293 290 284 285 288 291 287 285 289 293 294 299 300 305 306 308 308 302 294 289 286 284 175 191 230 266 223 168 172 184 184 69 351 352 153 152 153 152 151 151
319 317 319 319 315 315 315 314 310 305 300 310 319 323 325 327 327 333 329 321 314 307 307 308 307 306 306 306 305 305 308 311 311 311 313 311 312 314 315 312 308 306 304 306 303 290 282 281 284 286 289 286 280 282 281 279 269 275 283 292 297 295 291 286 274 247 261 225 213 211 250 198 143 178 214 147 145 185 295 190 175 167 162 160 161
311 310 309 309 311 312 311 309 307 306 302 313 320 322 326 328 330 333 326 319 314 312 310 307 305 305 304 303 304 305 306 307 309 311 311 311 313 313 312 311 310 308 303 302 301 298 295 290 286 292 298 301 302 301 301 296 291 293 288 287 289 290 288 279 276 280 235 230 196 205 237 251 178 182 199 128 160 183 204 203 192 176 172 171 171
313 311 310 313 310 310 308 307 307 304 305 314 320 322 325 327 330 329 325 317 314 311 308 307 305 301 300 299 300 302 304 304 305 308 309 311 313 315 313 310 307 303 300 301 297 295 294 294 295 295 298 299 299 301 302 302 300 301 303 299 295 304 298 294 283 277 258 199 198 208 233 257 197 185 171 89 146 185 195 200 252 195 188 186 186
311 310 311 309 306 304 305 305 305 308 307 310 317 321 323 325 329 327 322 320 314 314 310 305 303 300 299 300 301 302 302 301 303 305 307 314 316 313 308 306 302 299 299 301 297 293 293 293 293 293 294 298 299 298 298 298 297 297 294 289 292 297 290 284 289 285 279 203 202 184 186 238 147 129 131 55 64 327 318 339 334 318 224 195 194
303 303 303 301 302 303 300 303 306 307 304 307 314 318 320 324 327 325 324 320 317 314 310 308 305 304 305 306 305 303 302 301 304 308 310 312 307 304 302 299 298 296 297 299 299 299 299 299 296 295 289 289 288 283 283 289 290 289 280 278 285 278 280 283 284 289 283 251 189 174 199 232 165 200 151 129 266 248 84 161 357 318 326 275 193